Find Starlink 5989

NORAD ID: 56781 Int'l Des: 2023-078 Owner: SPXS Country: US Constellation: starlink operational
LEOCIRCULAR

Live-Position

3D-Globus wird geladen...

Über Starlink 5989

Beschreibung wird geladen...

Nächste Überflüge

Passes for default location (London). Set your location on the main map for personalized predictions.

Höhenverlauf

Loading altitude history...

Zweizeiliger Elementsatz

1 56781U 23078Q 26125.60446919 -.00001694 00000-0 -13417-3 0 9993
2 56781 70.0013 201.0253 0002987 268.1657 91.9160 14.98335773161200
Epoch: 5. Mai 2026 • Age: 16 hours

Aktueller Status

Höhe 575.9 km
Geschwindigkeit 7.57 km/s
Subsatellitenpunkt -9.57°S, 125.55°W
Startdatum 31. Mai 2023
Alter 2.9 years
Typ internet

Technische Details

Klassifizierung Payload
Masse 305.00 kg
Trockenmasse 290.00 kg
Gesamtmasse 305.00 kg
Länge 0.20 m
Durchmesser 2.80 m
Spannweite 9.00 m
Form Box + pan
Hersteller SPXS
Bus-Typ Starlink
Phasenstatus In Orbit
Besitzer/Staat SPXS/US

Most Searched